Tracking 28091 objects as of 30-Sep-2023
HD Live streaming from Space Station
objects crossing your sky now

STARLINK-30364

Track STARLINK-30364 now!
10-day predictions
STARLINK-30364 is classified as:


NORAD ID: 57741
Int'l Code: 2023-131K
Perigee: 516.1 km
Apogee: 518.1 km
Inclination: 43.0 °
Period: 94.8 minutes
Semi major axis: 6888 km
RCS: Unknown
Launch date: September 1, 2023
Source: United States (US)
Launch site: AIR FORCE EASTERN TEST RANGE (AFETR)
Your satellite tracking list
Your tracking list is empty




NASA's NSSDC Master Catalog

Two Line Element Set (TLE):
1 57741U 23131K   23273.50001157 -.02078160  00000-0 -10971+0 0  9993
2 57741  43.0001 336.4461 0001449 246.6333 359.4959 15.18624497  5732
Source of the keplerian elements: AFSPC